Weather observations for the past three days for
Olney-Noble Airport
Metric (Imperial)
Date Time (cdt) Wind (kph) Vis. (km) Weather Sky Cond. Temperature (ºC) Relative Humidity Wind Chill (°C) Heat Index (°C) Pressure Precipitation (cm)
Air Dwpt 6 hour altimeter (cm) sea level (mb) 1 hr 3 hr 6 hr
Max. Min.
05 16:15 N 17 G 26 8.05 Overcast SCT019 OVC033 10.2 9.7 97% 75.69 0.0
05 15:55 N 19 G 31 6.44 Overcast SCT009 SCT012 OVC019 10.5 10.2 98% 75.69 0.0 0.08 0.18
05 15:35 N 17 G 26 6.44 Overcast OVC017 11 10.3 96% 75.69 0.0 0.05
05 15:15 N 17 11.27 Overcast OVC014 11 11 100% 75.69 0.0 0.03
05 14:55 N 17 6.44 Overcast OVC012 11.2 11.1 99% 75.69 0.0 0.1
05 14:35 N 17 8.05 Overcast OVC007 11.5 11.5 100% 75.69 0.0 0.03
05 14:15 N 13 4.83 Overcast OVC005 11.9 11.9 100% 75.69 0.0
05 13:55 N 9 4.02 Overcast OVC007 12 12 100% 75.67 0.0
05 13:35 N 11 2.82 Overcast OVC007 12.1 12.1 100% 75.69 0.0
05 13:15 N 9 8.05 Overcast OVC007 12.3 12.1 99% 75.69 0.0
05 12:55 N 9 11.27 Overcast OVC009 12.6 12.1 15.6 11 97% 75.69 0.0 0.64
05 12:15 N 7 16.09 Overcast OVC009 12.2 11.5 96% 75.72 0.0
05 11:55 N 9 16.09 Overcast OVC009 12.1 11.1 94% 75.74 0.0
05 11:35 N 13 16.09 Overcast BKN009 OVC021 11.9 11.3 96% 75.69 0.0
05 11:15 NE 19 16.09 Overcast BKN007 BKN026 OVC060 12.1 11.6 97% 75.67 0.0
05 10:55 NE 20 16.09 Overcast BKN007 BKN026 OVC070 11.4 11.4 100% 75.64 0.0 0.23
05 10:35 N 9 0.00 Overcast BKN008 BKN034 OVC080 11 11 100% 75.67 0.0 0.2
05 10:15 N 19 G 26 0.00 Overcast BKN009 BKN031 OVC080 11.1 11.1 100% 75.69 0.0 0.15
05 09:55 NW 20 G 30 0.00 NULL NULL 11.8 11.8 100% 75.74 0.0 0.41 0.41
05 09:35 N 24 G 30 0.00 NULL NULL 12.9 12.1 95% 75.74 0.0 0.25
05 09:15 NW 7 16.09 Overcast OVC046 15.3 13.9 91% 75.69 0.0
05 08:55 Calm 16.09 Overcast OVC044 15.5 14.2 92% 75.64 0.0
05 08:35 NE 6 16.09 Overcast OVC044 15.5 14.5 94% 75.64 0.0
05 08:15 NE 9 16.09 Overcast OVC044 15.5 14.4 93% 75.62 0.0
05 07:55 N 6 16.09 Overcast OVC042 15.2 15.2 100% 75.62 0.0
05 07:35 NW 15 16.09 Overcast OVC044 15.2 15.2 100% 75.64 0.0
05 07:15 NW 11 16.09 Overcast OVC046 15 15 100% 75.62 0.0
05 06:55 Calm 16.09 Overcast BKN050 OVC075 15.2 14.3 20.5 14.3 94% 75.57 0.0 0.33
05 06:35 Calm 16.09 Overcast SCT050 BKN075 OVC095 15.1 14.1 94% 75.57 0.0
05 06:15 Calm 16.09 Overcast SCT060 OVC095 15 14 94% 75.54 0.0
05 05:55 SE 9 16.09 Mostly Cloudy SCT060 BKN095 15 14.1 94% 75.51 0.0
05 05:15 S 15 16.09 Mostly Cloudy SCT060 SCT070 BKN085 15 14 94% 75.51 0.0
05 04:55 S 11 16.09 Overcast SCT070 OVC075 14.9 14.2 96% 75.57 0.0
05 04:35 S 7 16.09 Overcast BKN080 OVC100 14.5 14.5 100% 75.57 0.0
05 04:15 SE 7 16.09 Overcast SCT070 OVC100 14.4 14.4 100% 75.57 0.0
05 03:55 SE 6 11.27 Overcast SCT048 BKN060 OVC080 14.6 14.5 99% 75.59 0.0 0.33 0.33
05 03:35 N 11 11.27 Overcast OVC048 16 12 77% 75.62 0.0 0.13
05 03:15 NW 13 16.09 Overcast BKN050 OVC070 19.9 10.9 56% 75.59 0.0
05 02:55 E 6 16.09 Overcast BKN055 OVC070 19.3 11.3 60% 75.57 0.0
05 02:35 N 17 16.09 Thunderstorm in Vicinity OVC070 19 11.2 61% 75.57 0.0
05 02:15 S 11 16.09 Overcast OVC070 19.5 10.8 57% 75.51 0.0
05 01:55 S 9 16.09 Thunderstorm in Vicinity BKN070 19.7 10.8 57% 75.49 0.0
05 01:35 SW 15 G 26 16.09 Thunderstorm in Vicinity CLR 19.8 10.6 56% 75.44 0.0
05 01:15 S 17 G 26 16.09 Thunderstorm in Vicinity CLR 20.1 10.5 54% 75.44 0.0
05 00:55 S 17 G 30 16.09 Fair CLR 20.2 10.5 23.2 20.2 54% 75.41 0.0
05 00:35 SW 19 G 33 16.09 Thunderstorm CLR 20.5 10.4 52% 75.41 0.0
05 00:15 S 22 G 33 16.09 Fair CLR 20.7 10.2 51% 75.39 0.0
04 23:55 S 17 G 33 16.09 Thunderstorm in Vicinity CLR 20.7 10.1 51% 75.39 0.0
04 23:35 S 19 G 31 16.09 Fair CLR 20.7 10 50% 75.39 0.0
04 23:15 S 19 G 35 16.09 Fair CLR 20.8 9.7 49% 75.39 0.0
04 22:55 S 17 G 28 16.09 Thunderstorm in Vicinity CLR 21 9.5 48% 75.41 0.0
04 22:35 S 19 G 28 16.09 Thunderstorm in Vicinity CLR 21.2 9.5 47% 75.41 0.0
04 22:15 S 15 16.09 Fair CLR 21.5 9.5 46% 75.41 0.0
04 21:55 S 15 G 28 16.09 Thunderstorm in Vicinity SCT100 21.7 9.4 46% 75.41 0.0
04 21:35 S 19 G 31 16.09 Partly Cloudy SCT100 SCT120 21.7 9.4 46% 75.44 0.0
04 21:15 S 9 16.09 Partly Cloudy SCT100 SCT120 21.6 9.6 46% 75.41 0.0
04 20:55 S 19 16.09 Mostly Cloudy SCT090 BKN110 21.5 9.9 48% 75.41 0.0
04 20:35 S 9 16.09 Overcast OVC110 21.7 9.9 47% 75.44 0.0
04 20:15 SW 11 16.09 Mostly Cloudy BKN110 22.1 9.5 45% 75.44 0.0
04 19:55 S 13 16.09 Partly Cloudy SCT110 22.1 9.5 45% 75.36 0.0
04 19:35 S 15 16.09 Fair CLR 22.5 9.3 43% 75.34 0.0
04 19:15 S 15 16.09 Fair CLR 23 9.1 41% 75.31 0.0
04 18:55 S 15 G 31 16.09 Fair CLR 23.4 9.1 24.5 20.9 40% 75.31 0.0
04 18:35 S 22 G 31 16.09 Fair CLR 24.2 8.8 38% 25 75.31 0.0
04 18:15 S 19 G 33 16.09 Fair CLR 23.7 8.3 37% 75.31 0.0
04 17:55 S 20 G 28 16.09 Fair CLR 23.7 8.2 37% 75.31 0.0
04 17:35 S 20 G 37 16.09 Fair CLR 24 8.9 38% 25 75.29 0.0
04 17:15 S 22 G 31 16.09 Fair CLR 23.6 9 40% 75.34 0.0
04 16:55 S 20 G 37 16.09 Fair CLR 23.6 9.4 41% 75.36 0.0
04 16:35 S 30 G 50 16.09 Fair CLR 22.7 9.6 43% 75.36 0.0
04 16:15 S 31 G 59 16.09 Partly Cloudy SCT030 SCT060 SCT110 22.5 9.1 43% 75.36 0.0
04 15:55 S 20 G 35 16.09 Mostly Cloudy SCT046 SCT060 BKN095 22.3 10.4 47% 75.49 0.0
04 15:35 S 26 16.09 Mostly Cloudy SCT065 SCT095 BKN110 22.1 10.9 49% 75.46 0.0
04 15:15 S 9 16.09 Mostly Cloudy BKN110 21.1 12.8 59% 75.54 0.0
04 14:55 SW 6 16.09 Partly Cloudy SCT100 22.5 11 48% 75.62 0.0
04 14:35 SW 6 16.09 Partly Cloudy SCT120 23 10.9 47% 75.62 0.0
04 14:15 SW 13 G 28 16.09 Mostly Cloudy SCT090 BKN120 23.1 10.9 46% 75.59 0.0
04 13:55 S 24 G 35 16.09 Mostly Cloudy SCT065 SCT090 BKN110 23 11.6 49% 75.46 0.0
04 13:35 S 17 G 28 16.09 Partly Cloudy SCT120 23.3 11.7 48% 75.51 0.0
04 13:15 S 19 G 35 16.09 Fair CLR 23.9 11.8 47% 25 75.51 0.0
04 12:55 S 20 G 31 16.09 Fair CLR 24 13 24 14 50% 25 75.57 0.0
04 12:35 S 17 G 30 16.09 Fair CLR 23.9 12.9 50% 25 75.57 0.0
04 12:15 S 17 G 31 16.09 Fair CLR 23.7 12.3 49% 75.59 0.0
04 11:55 S 19 G 30 16.09 Partly Cloudy SCT120 23.5 12.6 51% 75.62 0.0
04 11:35 S 17 G 28 16.09 Mostly Cloudy BKN120 22.6 13 55% 75.64 0.0
04 11:15 SW 19 G 35 16.09 Mostly Cloudy BKN120 21.6 12.5 56% 75.64 0.0
04 10:55 SW 15 G 26 16.09 Partly Cloudy SCT110 21.2 13.3 61% 75.64 0.0
04 10:35 S 17 G 28 16.09 Partly Cloudy SCT120 21 13.1 61% 75.64 0.0
04 10:15 S 17 G 28 16.09 Mostly Cloudy BKN120 19.7 12.3 63% 75.64 0.0
04 09:55 S 17 16.09 Partly Cloudy SCT120 20 13 64% 75.64 0.0
04 09:35 S 11 16.09 Partly Cloudy SCT120 18.6 12.2 67% 75.67 0.0
04 09:15 S 13 G 26 16.09 Mostly Cloudy BKN110 17.9 11.8 68% 75.67 0.0
04 08:55 S 15 16.09 Partly Cloudy SCT110 17.6 12.1 70% 75.69 0.0
04 08:35 S 19 G 28 16.09 Fair CLR 16.8 12 74% 75.69 0.0
04 08:15 S 17 16.09 Fair CLR 15.8 11.8 77% 75.69 0.0
04 07:55 S 13 16.09 Partly Cloudy SCT110 15 11.8 81% 75.69 0.0
04 07:35 S 13 16.09 Partly Cloudy SCT110 15 11.7 81% 75.69 0.0
04 07:15 S 11 16.09 Partly Cloudy SCT120 14.4 11.8 85% 75.74 0.0
04 06:55 S 17 16.09 Partly Cloudy SCT120 14 11.9 15.8 13 87% 75.74 0.0 0.38
04 06:35 S 9 16.09 Partly Cloudy SCT120 13.3 12.9 97% 75.74 0.0
04 06:15 S 13 16.09 Partly Cloudy SCT120 13.2 13 99% 75.69 0.0
04 05:55 S 7 16.09 Partly Cloudy SCT120 13 13 100% 75.69 0.0
04 05:35 S 7 16.09 Partly Cloudy SCT100 13.3 12.8 97% 75.74 0.0
04 05:15 S 9 16.09 Overcast OVC100 13.6 12.7 94% 75.74 0.0
04 04:55 S 11 16.09 Overcast SCT070 BKN090 OVC120 13.6 12.6 94% 75.74 0.0 0.38
04 04:35 S 15 16.09 Overcast SCT080 OVC090 13.6 12.5 93% 75.79 0.0 0.36
04 04:15 W 15 G 22 0.00 Thunderstorm BKN070 OVC090 14.6 11.6 82% 75.92 0.0 0.28
04 03:55 W 6 16.09 Thunderstorm OVC090 15.1 11.3 78% 75.77 0.0
04 03:35 S 9 16.09 Overcast SCT070 OVC090 15 11.3 79% 75.74 0.0
04 03:15 W 6 16.09 Thunderstorm in Vicinity OVC080 15 11.5 80% 75.87 0.0
04 02:55 Calm 16.09 Overcast OVC080 14.5 11.7 83% 75.79 0.0
04 02:35 W 19 G 61 0.00 Overcast SCT070 BKN080 OVC100 15 11.4 79% 75.9 0.0
04 02:15 W 30 G 43 16.09 Overcast SCT090 OVC120 15.3 8.2 63% 75.82 0.0
04 01:55 S 11 16.09 Overcast SCT090 OVC120 15.2 7.5 60% 75.74 0.0
04 01:35 Calm 16.09 Mostly Cloudy BKN100 BKN120 15.5 7.1 58% 75.77 0.0
04 01:15 S 9 16.09 Partly Cloudy SCT090 SCT120 15.5 6.8 56% 75.79 0.0
04 00:55 S 6 16.09 Mostly Cloudy BKN090 14.6 7.2 19.1 13.6 61% 75.77 0.0
04 00:35 S 9 16.09 Mostly Cloudy BKN090 14.7 7.2 61% 75.77 0.0
04 00:15 S 7 16.09 Mostly Cloudy BKN080 13.7 7.9 68% 75.79 0.0
03 23:55 Calm 16.09 Overcast OVC090 13.8 8 68% 75.82 0.0
03 23:35 Calm 16.09 Thunderstorm in Vicinity SCT080 BKN100 BKN120 14.2 7.2 63% 75.82 0.0
03 23:15 SE 6 16.09 Mostly Cloudy BKN080 BKN110 14.7 7.1 61% 75.84 0.0
03 22:55 S 7 16.09 Mostly Cloudy BKN080 BKN120 16.3 5.9 50% 75.87 0.0
03 22:35 S 13 16.09 Thunderstorm in Vicinity SCT090 BKN120 16 6.3 53% 75.87 0.0
03 22:15 S 7 16.09 Mostly Cloudy BKN090 BKN110 15.3 7.2 59% 75.87 0.0
03 21:55 S 7 16.09 Mostly Cloudy SCT065 SCT075 BKN110 14.7 7.5 62% 75.9 0.0
03 21:35 SE 7 16.09 Overcast SCT055 OVC085 16.1 6.2 52% 75.87 0.0
03 21:15 S 11 16.09 Thunderstorm in Vicinity BKN085 BKN120 15.8 6.5 54% 75.87 0.0
03 20:55 S 11 16.09 Thunderstorm in Vicinity CLR 16 5.9 51% 75.87 0.0
03 20:35 S 13 16.09 Fair CLR 16.2 6 51% 75.84 0.0
03 20:15 S 15 16.09 Thunderstorm in Vicinity CLR 16.7 6 49% 75.84 0.0
03 19:55 S 13 16.09 Fair CLR 16.8 6.3 50% 75.87 0.0
03 19:35 S 13 16.09 Fair CLR 18.2 5.4 43% 75.87 0.0
03 19:15 S 11 16.09 Fair CLR 18.8 5 40% 75.9 0.0
03 18:55 S 9 16.09 Fair CLR 19.2 5 19.9 17.2 39% 75.92 0.0
03 18:35 S 9 16.09 Fair CLR 19.6 4.6 37% 75.92 0.0
03 18:15 SW 17 G 30 16.09 Fair CLR 19.8 4.3 36% 75.92 0.0
03 17:55 SW 17 G 35 16.09 Fair CLR 19.8 4.2 36% 75.9 0.0
03 17:35 S 24 G 41 16.09 Fair CLR 19.7 4.5 37% 75.87 0.0
03 17:15 SW 24 G 44 16.09 Fair CLR 19.7 4.7 37% 75.9 0.0
03 16:55 S 20 G 43 16.09 Fair CLR 19.6 5.7 40% 75.92 0.0
03 16:35 S 19 G 41 16.09 Fair CLR 19.5 5.5 40% 75.95 0.0
03 16:15 S 33 16.09 Fair and Breezy CLR 19.3 5.8 41% 75.97 0.0
03 15:55 S 20 G 37 16.09 Fair CLR 19 5.8 42% 76.02 0.0
03 15:35 S 28 G 44 16.09 Fair CLR 18.9 5.8 42% 76.05 0.0
03 15:15 S 20 G 35 16.09 Fair CLR 18.6 5.5 42% 76.07 0.0
03 14:55 S 22 G 41 16.09 Fair CLR 18.6 5.7 43% 76.15 0.0
03 14:35 S 30 G 43 16.09 Fair CLR 18.3 5.9 44% 76.15 0.0
03 14:15 SW 15 G 30 16.09 Fair CLR 18.5 6.1 44% 76.2 0.0
03 13:55 SW 22 G 37 16.09 Fair CLR 18 5.8 45% 76.2 0.0
03 13:35 S 22 G 37 16.09 Fair CLR 17.7 5 43% 76.25 0.0
03 13:15 S 28 G 37 16.09 Fair CLR 17.5 4.5 42% 76.3 0.0
03 12:55 S 20 G 31 16.09 Fair CLR 17.5 5.2 17.6 6.3 44% 76.33 0.0
03 12:35 S 20 G 31 16.09 Fair CLR 17 5 45% 76.38 0.0
03 12:15 SW 17 G 31 16.09 Fair CLR 16.4 4.8 46% 76.4 0.0
03 11:55 SW 20 G 33 16.09 Fair CLR 16.1 5.2 49% 76.43 0.0
03 11:35 S 19 G 31 16.09 Fair CLR 15.7 5.5 51% 76.45 0.0
03 11:15 SW 15 G 33 16.09 Fair CLR 15.3 4.8 50% 76.48 0.0
03 10:55 S 17 16.09 Fair CLR 15.1 5.2 52% 76.48 0.0
03 10:35 S 13 G 28 16.09 Fair CLR 14.5 5.3 54% 76.5 0.0
03 10:15 SW 19 G 30 16.09 Fair CLR 14 4.7 54% 76.5 0.0
03 09:55 S 19 G 26 16.09 Fair CLR 13.5 4.7 56% 76.5 0.0
03 09:35 SW 17 G 31 16.09 Fair CLR 13 3.6 53% 76.5 0.0
03 09:15 S 17 G 28 16.09 Fair CLR 12.6 4.7 59% 76.53 0.0
03 08:55 S 15 16.09 Fair CLR 12 4.9 62% 76.53 0.0
03 08:35 SW 13 16.09 Fair CLR 11.2 4.7 65% 76.53 0.0
03 08:15 S 15 16.09 Fair CLR 10.5 4.5 67% 76.53 0.0
03 07:55 S 11 16.09 Fair CLR 10 4.8 70% 9 76.53 0.0
03 07:35 S 6 16.09 Fair CLR 8.8 5.9 82% 76.53 0.0
03 07:15 S 7 16.09 Fair CLR 7.2 6 92% 6 76.53 0.0
03 06:55 S 7 16.09 Fair CLR 6.1 6.1 6.1 3.6 100% 5 76.53 0.0
03 06:35 S 6 16.09 Fair CLR 4.9 4.9 100% 76.5 0.0
03 06:15 Calm 16.09 Fair CLR 4.1 4.1 100% 76.5 0.0
03 05:55 Calm 16.09 Fair CLR 3.7 3.7 100% 76.48 0.0
03 05:35 Calm 16.09 Fair CLR 3.7 3.7 100% 76.48 0.0
03 05:15 Calm 16.09 Fair CLR 4.1 4.1 100% 76.48 0.0
03 04:55 Calm 16.09 Fair CLR 4.2 4.2 100% 76.48 0.0
03 04:35 Calm 16.09 Fair CLR 4.3 4.2 99% 76.5 0.0
03 04:15 Calm 16.09 Fair CLR 4.8 4.5 98% 76.5 0.0
03 03:55 Calm 16.09 Fair CLR 4.6 4.6 100% 76.5 0.0
03 03:35 Calm 16.09 Fair CLR 4.5 4.5 100% 76.5 0.0
03 03:15 Calm 16.09 Fair CLR 4.8 4.8 100% 76.5 0.0
03 02:55 Calm 16.09 Fair CLR 4.8 4.5 98% 76.5 0.0
03 02:35 Calm 16.09 Fair CLR 4.6 4.6 100% 76.48 0.0
03 02:15 Calm 16.09 Fair CLR 4.7 4.7 100% 76.5 0.0
03 01:55 Calm 16.09 Fair CLR 4.5 4.5 100% 76.5 0.0
03 01:35 Calm 16.09 Fair CLR 4.5 4.5 100% 76.5 0.0
03 01:15 Calm 16.09 Fair CLR 4.8 4.8 100% 76.53 0.0
03 00:55 Calm 16.09 Fair CLR 5 5 13.1 5 100% 76.53 0.0
03 00:35 Calm 16.09 Fair CLR 5.2 5.2 100% 76.53 0.0
03 00:15 Calm 16.09 Fair CLR 5.3 5 98% 76.53 0.0
02 23:55 Calm 16.09 Fair CLR 5.5 5.3 99% 76.53 0.0
02 23:35 Calm 16.09 Fair CLR 5.5 5.1 97% 76.53 0.0
02 23:15 Calm 16.09 Fair CLR 6 5.3 95% 76.53 0.0
02 22:55 E 7 16.09 Fair CLR 6 3.4 84% 5 76.53 0.0
02 22:35 Calm 16.09 Fair CLR 6.8 4.2 84% 76.5 0.0
02 22:15 Calm 16.09 Fair CLR 6.8 3.9 82% 76.53 0.0
02 21:55 Calm 16.09 Fair CLR 6.9 3.5 79% 76.53 0.0
02 21:35 Calm 16.09 Fair CLR 7.7 3.9 77% 76.5 0.0
02 21:15 Calm 16.09 Fair CLR 8.3 2.5 67% 76.5 0.0
02 20:55 Calm 16.09 Fair CLR 8.6 2.4 65% 76.48 0.0
02 20:35 Calm 16.09 Fair CLR 9 3.5 69% 76.48 0.0
02 20:15 Calm 16.09 Fair CLR 9.7 3.4 65% 76.45 0.0
02 19:55 Calm 16.09 Partly Cloudy SCT070 SCT080 11.6 0.3 46% 76.45 0.0
02 19:35 N 6 16.09 Mostly Cloudy BKN080 12.2 0.2 44% 76.43 0.0
02 19:15 N 7 16.09 Mostly Cloudy BKN080 12.8 0.5 43% 76.43 0.0
02 18:55 NW 9 16.09 Partly Cloudy SCT080 13.2 0 14.4 12.5 41% 76.43 0.0
02 18:35 N 15 16.09 Fair CLR 13.6 -1 37% 76.4 0.0
02 18:15 N 13 16.09 Partly Cloudy SCT070 13 -0.3 40% 76.4 0.0
02 17:55 N 9 16.09 Mostly Cloudy BKN070 14.3 -0.6 36% 76.4 0.0
02 17:35 N 9 G 26 16.09 Partly Cloudy SCT070 SCT085 14.2 -0.2 37% 76.4 0.0
02 17:15 N 17 G 28 16.09 Partly Cloudy SCT070 SCT085 SCT090 14.1 0 38% 76.4 0.0
02 16:55 N 7 16.09 Partly Cloudy SCT070 SCT085 13.5 0.1 40% 76.4 0.0
Date Time (cdt) Wind (kph) Vis. (km) Weather Sky Cond. Air Dwpt Max. Min. Relative Humidity Wind Chill (°C) Heat Index (°C) altimeter (cm) sea level (mb) 1 hr 3 hr 6 hr
6 hour
Temperature (ºC) Pressure Precipitation (cm)